Main page
METAR-TAF:

METAR-TAF

Airports :

Kashan, Iran

latitude: 33-59N, longitude: 051-27E, elevation: 982 m

Current weather observation

The report was made 1 hour and 20 minutes ago, at 16:00 UTC
Wind 4 kt from the East/Northeast
Temperature 34°C
Humidity 11%
Pressure 1007 hPa
Visibility 10 km or more
no clouds below 1500 m and no cumulonimbus

METAR: OIFK 231600Z 07004KT CAVOK 34/M01 Q1007

Time: 21:50 (17:20 UTC)


TAF: missing

Weather observations and forecasts of more than 4000 airports (METAR and TAF reports).

The available stations are represented by yellow and red dots on the map.

Hover mouse over dot to see the name of the station.

Then click to see weather observations and forecasts.

To change the map : click on the green buttons with a black cross to zoom in, on the green button with a dash to zoom out, or on the green arrows for adjacent maps.


METAR-TAF: